When you browse on this site, cookies collect data to enhance your experience and personalize the content and advertising you see.
Visit our Privacy Policy to learn more. By continuing to use the site, you agree to this use of cookies and data.
  • In Österreich
  • Länderverzeichnis
  • Für 7 Tage
  • Wassertemperatur
  • Wetterkarte
  • News
  • Widgets
  • user-avatar
    Anmelden

    Stündliche Wetter Banjul

    Heute, 25 Januar, Samstag

    Zeit Temperatur Niederschläge Wind Luftdruck Luftfeuchtigkeit
    00:00 +29°C° 0 mm 6 m/S 757 mmHg 35%
    01:00 +29°C° 0 mm 6 m/S 757 mmHg 34%
    02:00 +29°C° 0 mm 6 m/S 757 mmHg 33%
    03:00 +28°C° 0 mm 5 m/S 757 mmHg 34%
    04:00 +27°C° 0 mm 5 m/S 757 mmHg 36%
    05:00 +27°C° 0 mm 5 m/S 757 mmHg 37%
    06:00 +28°C° 0 mm 6 m/S 757 mmHg 35%
    07:00 +29°C° 0 mm 6 m/S 758 mmHg 33%
    08:00 +30°C° 0 mm 7 m/S 758 mmHg 31%
    09:00 +33°C° 0 mm 6 m/S 758 mmHg 25%
    10:00 +36°C° 0 mm 6 m/S 758 mmHg 20%
    11:00 +39°C° 0 mm 5 m/S 758 mmHg 14%
    12:00 +40°C° 0 mm 4 m/S 758 mmHg 13%
    13:00 +41°C° 0 mm 4 m/S 757 mmHg 12%
    14:00 +42°C° 0 mm 3 m/S 757 mmHg 11%
    15:00 +42°C° 0 mm 3 m/S 756 mmHg 12%
    16:00 +41°C° 0 mm 4 m/S 756 mmHg 13%
    17:00 +40°C° 0 mm 4 m/S 756 mmHg 14%
    18:00 +36°C° 0 mm 4 m/S 757 mmHg 23%
    19:00 +32°C° 0 mm 5 m/S 758 mmHg 33%
    20:00 +28°C° 0 mm 5 m/S 758 mmHg 42%
    21:00 +28°C° 0 mm 5 m/S 759 mmHg 39%
    22:00 +28°C° 0 mm 5 m/S 759 mmHg 35%
    23:00 +28°C° 0 mm 6 m/S 760 mmHg 32%

    Morgen, 26 Januar, Sonntag

    Zeit Temperatur Niederschläge Wind Luftdruck Luftfeuchtigkeit
    00:00 +28°C° 0 mm 6 m/S 759 mmHg 33%
    01:00 +28°C° 0 mm 6 m/S 759 mmHg 33%
    02:00 +28°C° 0 mm 6 m/S 759 mmHg 34%
    03:00 +27°C° 0 mm 6 m/S 759 mmHg 35%
    04:00 +27°C° 0 mm 7 m/S 759 mmHg 36%
    05:00 +27°C° 0 mm 7 m/S 759 mmHg 37%
    06:00 +28°C° 0 mm 8 m/S 759 mmHg 34%
    07:00 +29°C° 0 mm 8 m/S 760 mmHg 32%
    08:00 +29°C° 0 mm 9 m/S 760 mmHg 30%
    09:00 +33°C° 0 mm 9 m/S 760 mmHg 26%
    10:00 +35°C° 0 mm 9 m/S 760 mmHg 22%
    11:00 +38°C° 0 mm 9 m/S 760 mmHg 18%
    12:00 +39°C° 0 mm 9 m/S 759 mmHg 16%
    13:00 +40°C° 0 mm 8 m/S 759 mmHg 15%
    14:00 +41°C° 0 mm 8 m/S 758 mmHg 13%
    15:00 +40°C° 0 mm 7 m/S 758 mmHg 13%
    16:00 +40°C° 0 mm 7 m/S 757 mmHg 13%
    17:00 +40°C° 0 mm 6 m/S 757 mmHg 13%
    18:00 +36°C° 0 mm 6 m/S 757 mmHg 14%
    19:00 +34°C° 0 mm 5 m/S 758 mmHg 16%
    20:00 +32°C° 0 mm 5 m/S 759 mmHg 18%
    21:00 +30°C° 0 mm 5 m/S 759 mmHg 19%
    22:00 +29°C° 0 mm 5 m/S 759 mmHg 20%
    23:00 +28°C° 0 mm 5 m/S 759 mmHg 21%

    übermorgen, 27 Januar, Montag

    Zeit Temperatur Niederschläge Wind Luftdruck Luftfeuchtigkeit
    00:00 +28°C° 0 mm 5 m/S 759 mmHg 22%
    01:00 +27°C° 0 mm 5 m/S 759 mmHg 23%
    02:00 +27°C° 0 mm 5 m/S 758 mmHg 24%
    03:00 +26°C° 0 mm 5 m/S 758 mmHg 24%
    04:00 +26°C° 0 mm 5 m/S 758 mmHg 23%
    05:00 +25°C° 0 mm 5 m/S 758 mmHg 23%
    06:00 +26°C° 0 mm 5 m/S 758 mmHg 20%
    07:00 +27°C° 0 mm 6 m/S 758 mmHg 18%
    08:00 +28°C° 0 mm 6 m/S 758 mmHg 16%
    09:00 +32°C° 0 mm 6 m/S 758 mmHg 14%
    10:00 +35°C° 0 mm 6 m/S 758 mmHg 11%
    11:00 +39°C° 0 mm 6 m/S 758 mmHg 9%
    12:00 +40°C° 0 mm 5 m/S 757 mmHg 8%
    13:00 +41°C° 0 mm 5 m/S 756 mmHg 8%
    14:00 +43°C° 0 mm 4 m/S 756 mmHg 7%
    15:00 +42°C° 0 mm 4 m/S 756 mmHg 8%
    16:00 +42°C° 0 mm 4 m/S 755 mmHg 8%
    17:00 +41°C° 0 mm 4 m/S 755 mmHg 9%
    18:00 +36°C° 0 mm 4 m/S 756 mmHg 16%
    19:00 +32°C° 0 mm 4 m/S 757 mmHg 24%
    20:00 +27°C° 0 mm 4 m/S 757 mmHg 32%
    21:00 +27°C° 0 mm 4 m/S 758 mmHg 35%
    22:00 +26°C° 0 mm 4 m/S 758 mmHg 39%
    23:00 +25°C° 0 mm 3 m/S 759 mmHg 42%

    28 Januar, Dienstag

    Zeit Temperatur Niederschläge Wind Luftdruck Luftfeuchtigkeit
    00:00 +24°C° 0 mm 3 m/S 758 mmHg 46%
    01:00 +24°C° 0 mm 2 m/S 758 mmHg 50%
    02:00 +23°C° 0 mm 2 m/S 758 mmHg 55%
    03:00 +21°C° 0 mm 2 m/S 758 mmHg 54%
    04:00 +21°C° 0 mm 2 m/S 758 mmHg 54%
    05:00 +20°C° 0 mm 2 m/S 757 mmHg 54%
    06:00 +21°C° 0 mm 2 m/S 758 mmHg 52%
    07:00 +23°C° 0 mm 2 m/S 758 mmHg 50%
    08:00 +25°C° 0 mm 2 m/S 759 mmHg 47%
    09:00 +28°C° 0 mm 2 m/S 759 mmHg 39%
    10:00 +31°C° 0 mm 2 m/S 759 mmHg 31%
    11:00 +35°C° 0 mm 3 m/S 759 mmHg 23%
    12:00 +36°C° 0 mm 3 m/S 758 mmHg 22%
    13:00 +37°C° 0 mm 4 m/S 757 mmHg 20%
    14:00 +39°C° 0 mm 5 m/S 757 mmHg 19%
    15:00 +36°C° 0 mm 6 m/S 757 mmHg 25%
    16:00 +33°C° 0 mm 6 m/S 757 mmHg 32%
    17:00 +30°C° 0 mm 7 m/S 757 mmHg 38%
    18:00 +28°C° 0 mm 6 m/S 757 mmHg 46%
    19:00 +26°C° 0 mm 5 m/S 758 mmHg 54%
    20:00 +23°C° 0 mm 5 m/S 758 mmHg 62%
    21:00 +23°C° 0 mm 4 m/S 759 mmHg 64%
    22:00 +24°C° 0 mm 3 m/S 759 mmHg 66%
    23:00 +23°C° 0 mm 2 m/S 759 mmHg 69%

    29 Januar, Mittwoch

    Zeit Temperatur Niederschläge Wind Luftdruck Luftfeuchtigkeit
    00:00 +23°C° 0 mm 2 m/S 759 mmHg 70%
    01:00 +22°C° 0 mm 3 m/S 758 mmHg 71%
    02:00 +22°C° 0 mm 3 m/S 758 mmHg 73%
    03:00 +21°C° 0 mm 3 m/S 758 mmHg 75%
    04:00 +21°C° 0 mm 2 m/S 758 mmHg 77%
    05:00 +22°C° 0 mm 1 m/S 758 mmHg 79%
    06:00 +23°C° 0 mm 1 m/S 759 mmHg 74%
    07:00 +24°C° 0 mm 1 m/S 759 mmHg 68%
    08:00 +25°C° 0 mm 1 m/S 760 mmHg 62%
    09:00 +28°C° 0 mm 1 m/S 759 mmHg 50%
    10:00 +30°C° 0 mm 2 m/S 759 mmHg 38%
    11:00 +34°C° 0 mm 2 m/S 759 mmHg 26%
    12:00 +36°C° 0 mm 2 m/S 758 mmHg 21%
    13:00 +38°C° 0 mm 2 m/S 757 mmHg 17%
    14:00 +40°C° 0 mm 3 m/S 757 mmHg 12%
    15:00 +39°C° 0 mm 3 m/S 756 mmHg 12%
    16:00 +39°C° 0 mm 3 m/S 756 mmHg 13%
    17:00 +38°C° 0 mm 3 m/S 756 mmHg 13%
    18:00 +35°C° 0 mm 3 m/S 757 mmHg 20%
    19:00 +30°C° 0 mm 3 m/S 757 mmHg 27%
    20:00 +26°C° 0 mm 3 m/S 758 mmHg 35%
    21:00 +26°C° 0 mm 4 m/S 758 mmHg 39%
    22:00 +25°C° 0 mm 4 m/S 759 mmHg 42%
    23:00 +25°C° 0 mm 4 m/S 759 mmHg 46%

    30 Januar, Donnerstag

    Zeit Temperatur Niederschläge Wind Luftdruck Luftfeuchtigkeit
    00:00 +24°C° 0 mm 3 m/S 758 mmHg 46%
    01:00 +24°C° 0 mm 3 m/S 758 mmHg 45%
    02:00 +24°C° 0 mm 2 m/S 758 mmHg 45%
    03:00 +24°C° 0 mm 3 m/S 758 mmHg 40%
    04:00 +24°C° 0 mm 3 m/S 758 mmHg 35%
    05:00 +23°C° 0 mm 4 m/S 758 mmHg 31%
    06:00 +25°C° 0 mm 4 m/S 758 mmHg 28%
    07:00 +26°C° 0 mm 5 m/S 759 mmHg 24%
    08:00 +28°C° 0 mm 6 m/S 759 mmHg 21%
    09:00 +32°C° 0 mm 6 m/S 759 mmHg 18%
    10:00 +35°C° 0 mm 6 m/S 759 mmHg 15%
    11:00 +39°C° 0 mm 6 m/S 759 mmHg 12%
    12:00 +40°C° 0 mm 6 m/S 758 mmHg 12%
    13:00 +41°C° 0 mm 5 m/S 758 mmHg 11%
    14:00 +42°C° 0 mm 4 m/S 757 mmHg 10%
    15:00 +42°C° 0 mm 4 m/S 757 mmHg 10%
    16:00 +41°C° 0 mm 4 m/S 756 mmHg 10%
    17:00 +41°C° 0 mm 5 m/S 756 mmHg 11%
    18:00 +37°C° 0 mm 5 m/S 757 mmHg 13%
    19:00 +35°C° 0 mm 5 m/S 757 mmHg 15%
    20:00 +32°C° 0 mm 5 m/S 758 mmHg 17%
    21:00 +30°C° 0 mm 5 m/S 758 mmHg 18%
    22:00 +29°C° 0 mm 5 m/S 758 mmHg 19%
    23:00 +28°C° 0 mm 5 m/S 759 mmHg 20%
    Mehr zeigen